• In Portugal
  • List of Countries
  • For 7 days
  • Water Temperature
  • Satellite Maps
  • Weather Map
  • Weather Widgets
  • user-avatar
    Login

    Hourly Weather Artashat

    Today, 15 August, Wednesday

    Time Temperature Precipitation Wind Pressure Humidity
    00:00 +16°C° 0.1 mm 2 mps 603 mmHg 64%
    01:00 +15°C° 0 mm 1 mps 603 mmHg 66%
    02:00 +15°C° 0 mm 1 mps 603 mmHg 67%
    03:00 +14°C° 0 mm 1 mps 602 mmHg 70%
    04:00 +14°C° 0.1 mm 1 mps 602 mmHg 70%
    05:00 +14°C° 0.1 mm 1 mps 602 mmHg 71%
    06:00 +14°C° 0.1 mm 1 mps 602 mmHg 71%
    07:00 +16°C° 0 mm 1 mps 603 mmHg 64%
    08:00 +17°C° 0 mm 2 mps 603 mmHg 57%
    09:00 +19°C° 0 mm 2 mps 604 mmHg 50%
    10:00 +20°C° 0 mm 2 mps 604 mmHg 46%
    11:00 +21°C° 0 mm 2 mps 604 mmHg 41%
    12:00 +22°C° 0 mm 3 mps 605 mmHg 37%
    13:00 +24°C° 0.1 mm 3 mps 605 mmHg 35%
    14:00 +25°C° 0.1 mm 3 mps 605 mmHg 33%
    15:00 +25°C° 0 mm 3 mps 605 mmHg 33%
    16:00 +24°C° 0 mm 3 mps 605 mmHg 33%
    17:00 +24°C° 0 mm 3 mps 605 mmHg 34%
    18:00 +24°C° 0 mm 3 mps 605 mmHg 35%
    19:00 +21°C° 0 mm 3 mps 605 mmHg 39%
    20:00 +20°C° 0 mm 2 mps 605 mmHg 43%
    21:00 +19°C° 0 mm 2 mps 604 mmHg 47%
    22:00 +18°C° 0 mm 2 mps 604 mmHg 49%
    23:00 +17°C° 0 mm 2 mps 604 mmHg 50%

    Tomorrow, 16 August, Thursday

    Time Temperature Precipitation Wind Pressure Humidity
    00:00 +17°C° 0 mm 2 mps 604 mmHg 52%
    01:00 +16°C° 0 mm 1 mps 604 mmHg 53%
    02:00 +16°C° 0 mm 1 mps 604 mmHg 54%
    03:00 +15°C° 0 mm 1 mps 604 mmHg 55%
    04:00 +15°C° 0 mm 1 mps 604 mmHg 55%
    05:00 +15°C° 0 mm 1 mps 604 mmHg 56%
    06:00 +15°C° 0 mm 1 mps 604 mmHg 56%
    07:00 +18°C° 0 mm 1 mps 605 mmHg 49%
    08:00 +19°C° 0 mm 2 mps 605 mmHg 42%
    09:00 +21°C° 0 mm 2 mps 605 mmHg 36%
    10:00 +23°C° 0 mm 2 mps 606 mmHg 32%
    11:00 +25°C° 0 mm 2 mps 606 mmHg 29%
    12:00 +26°C° 0 mm 3 mps 606 mmHg 25%
    13:00 +27°C° 0 mm 3 mps 606 mmHg 23%
    14:00 +28°C° 0 mm 3 mps 606 mmHg 22%
    15:00 +29°C° 0 mm 3 mps 606 mmHg 20%
    16:00 +28°C° 0 mm 3 mps 606 mmHg 21%
    17:00 +28°C° 0 mm 3 mps 606 mmHg 22%
    18:00 +27°C° 0 mm 2 mps 605 mmHg 23%
    19:00 +25°C° 0 mm 2 mps 605 mmHg 28%
    20:00 +24°C° 0 mm 2 mps 605 mmHg 32%
    21:00 +22°C° 0 mm 1 mps 604 mmHg 37%
    22:00 +21°C° 0 mm 1 mps 604 mmHg 38%
    23:00 +20°C° 0 mm 1 mps 604 mmHg 40%

    Day after tomorrow, 17 August, Friday

    Time Temperature Precipitation Wind Pressure Humidity
    00:00 +20°C° 0 mm 1 mps 604 mmHg 42%
    01:00 +19°C° 0 mm 1 mps 604 mmHg 43%
    02:00 +19°C° 0 mm 1 mps 603 mmHg 45%
    03:00 +18°C° 0 mm 1 mps 603 mmHg 46%
    04:00 +18°C° 0 mm 1 mps 603 mmHg 47%
    05:00 +18°C° 0 mm 1 mps 603 mmHg 47%
    06:00 +18°C° 0 mm 1 mps 603 mmHg 47%
    07:00 +20°C° 0 mm 1 mps 604 mmHg 42%
    08:00 +22°C° 0 mm 1 mps 604 mmHg 36%
    09:00 +24°C° 0 mm 1 mps 605 mmHg 31%
    10:00 +26°C° 0 mm 1 mps 605 mmHg 27%
    11:00 +27°C° 0 mm 2 mps 605 mmHg 24%
    12:00 +29°C° 0 mm 2 mps 606 mmHg 21%
    13:00 +29°C° 0 mm 2 mps 605 mmHg 20%
    14:00 +30°C° 0 mm 2 mps 605 mmHg 18%
    15:00 +31°C° 0 mm 2 mps 605 mmHg 17%
    16:00 +30°C° 0 mm 2 mps 605 mmHg 18%
    17:00 +30°C° 0 mm 2 mps 604 mmHg 19%
    18:00 +29°C° 0 mm 2 mps 604 mmHg 21%
    19:00 +27°C° 0 mm 2 mps 604 mmHg 25%
    20:00 +25°C° 0 mm 2 mps 603 mmHg 30%
    21:00 +23°C° 0 mm 2 mps 603 mmHg 35%
    22:00 +22°C° 0 mm 1 mps 603 mmHg 37%
    23:00 +22°C° 0 mm 1 mps 602 mmHg 39%

    18 August, Saturday

    Time Temperature Precipitation Wind Pressure Humidity
    00:00 +21°C° 0 mm 1 mps 602 mmHg 42%
    01:00 +20°C° 0 mm 1 mps 602 mmHg 44%
    02:00 +20°C° 0 mm 1 mps 601 mmHg 45%
    03:00 +19°C° 0 mm 1 mps 601 mmHg 47%
    04:00 +19°C° 0 mm 1 mps 601 mmHg 48%
    05:00 +19°C° 0 mm 1 mps 601 mmHg 50%
    06:00 +19°C° 0 mm 1 mps 601 mmHg 51%
    07:00 +21°C° 0 mm 1 mps 602 mmHg 44%
    08:00 +23°C° 0 mm 1 mps 602 mmHg 38%
    09:00 +25°C° 0 mm 2 mps 603 mmHg 31%
    10:00 +26°C° 0 mm 2 mps 603 mmHg 28%
    11:00 +27°C° 0 mm 2 mps 603 mmHg 25%
    12:00 +29°C° 0 mm 2 mps 603 mmHg 21%
    13:00 +29°C° 0 mm 2 mps 603 mmHg 20%
    14:00 +30°C° 0 mm 3 mps 603 mmHg 18%
    15:00 +31°C° 0 mm 3 mps 603 mmHg 17%
    16:00 +30°C° 0 mm 3 mps 602 mmHg 18%
    17:00 +29°C° 0 mm 3 mps 602 mmHg 19%
    18:00 +29°C° 0 mm 3 mps 602 mmHg 20%
    19:00 +27°C° 0 mm 3 mps 602 mmHg 25%
    20:00 +25°C° 0 mm 3 mps 602 mmHg 29%
    21:00 +23°C° 0 mm 2 mps 601 mmHg 34%
    22:00 +21°C° 0 mm 2 mps 601 mmHg 37%
    23:00 +20°C° 0 mm 2 mps 601 mmHg 41%

    19 August, Sunday

    Time Temperature Precipitation Wind Pressure Humidity
    00:00 +19°C° 0 mm 2 mps 601 mmHg 45%
    01:00 +19°C° 0 mm 2 mps 601 mmHg 48%
    02:00 +18°C° 0 mm 2 mps 601 mmHg 52%
    03:00 +17°C° 0 mm 2 mps 600 mmHg 55%
    04:00 +17°C° 0 mm 2 mps 600 mmHg 57%
    05:00 +17°C° 0 mm 2 mps 600 mmHg 58%
    06:00 +18°C° 0 mm 1 mps 601 mmHg 60%
    07:00 +18°C° 0 mm 2 mps 601 mmHg 53%
    08:00 +20°C° 0 mm 2 mps 602 mmHg 47%
    09:00 +23°C° 0 mm 2 mps 602 mmHg 40%
    10:00 +24°C° 0 mm 2 mps 602 mmHg 36%
    11:00 +25°C° 0 mm 2 mps 603 mmHg 32%
    12:00 +27°C° 0 mm 2 mps 603 mmHg 28%
    13:00 +27°C° 0 mm 2 mps 603 mmHg 26%
    14:00 +28°C° 0 mm 3 mps 603 mmHg 25%
    15:00 +28°C° 0 mm 3 mps 603 mmHg 23%
    16:00 +28°C° 0 mm 3 mps 602 mmHg 24%
    17:00 +27°C° 0 mm 3 mps 602 mmHg 25%
    18:00 +27°C° 0 mm 3 mps 602 mmHg 26%
    19:00 +25°C° 0.1 mm 3 mps 602 mmHg 31%
    20:00 +23°C° 0.1 mm 2 mps 602 mmHg 36%
    21:00 +21°C° 0.1 mm 2 mps 602 mmHg 41%
    22:00 +20°C° 0 mm 2 mps 602 mmHg 44%
    23:00 +19°C° 0 mm 2 mps 602 mmHg 47%

    20 August, Monday

    Time Temperature Precipitation Wind Pressure Humidity
    00:00 +19°C° 0 mm 2 mps 602 mmHg 49%
    01:00 +18°C° 0 mm 2 mps 602 mmHg 51%
    02:00 +17°C° 0 mm 2 mps 601 mmHg 53%
    03:00 +17°C° 0 mm 2 mps 601 mmHg 55%
    04:00 +17°C° 0 mm 2 mps 602 mmHg 56%
    05:00 +16°C° 0 mm 2 mps 602 mmHg 57%
    06:00 +16°C° 0 mm 2 mps 602 mmHg 57%
    07:00 +18°C° 0 mm 2 mps 603 mmHg 51%
    08:00 +20°C° 0 mm 2 mps 603 mmHg 45%
    09:00 +21°C° 0 mm 2 mps 604 mmHg 39%
    10:00 +24°C° 0 mm 3 mps 604 mmHg 35%
    11:00 +25°C° 0 mm 3 mps 604 mmHg 31%
    12:00 +27°C° 0 mm 3 mps 605 mmHg 27%
    13:00 +27°C° 0 mm 3 mps 605 mmHg 25%
    14:00 +28°C° 0 mm 3 mps 605 mmHg 23%
    15:00 +29°C° 0 mm 4 mps 605 mmHg 21%
    16:00 +28°C° 0 mm 4 mps 605 mmHg 22%
    17:00 +28°C° 0 mm 4 mps 605 mmHg 24%
    18:00 +27°C° 0 mm 4 mps 604 mmHg 26%
    19:00 +25°C° 0 mm 3 mps 604 mmHg 31%
    20:00 +22°C° 0 mm 3 mps 604 mmHg 37%
    21:00 +21°C° 0 mm 2 mps 604 mmHg 42%
    22:00 +20°C° 0 mm 2 mps 604 mmHg 45%
    23:00 +19°C° 0 mm 2 mps 604 mmHg 48%
    Show more